Regional Weather Roundup
Issued by NWS

Home | Current Version | Previous Version | Graphics & Text | Print | Product List | Glossary Off
Versions: 1 2 3 4 5 6 7 8 9 10 11 12 13 14 15 16 17 18 19 20 21 22 23 24 25 26 27 28 29 30 31 32 33 34 35 36 37 38 39 40 41 42 43 44 45 46 47 48 49 50

000
ASUS43 KMKX 031811
RWRWI

WISCONSIN REGIONAL WEATHER ROUNDUP
NATIONAL WEATHER SERVICE MILWAUKEE/SULLIVAN WI
100 PM CDT SUN MAY 03 2015

NOTE: "FAIR" INDICATES FEW OR NO CLOUDS BELOW 12,000 FEET WITH NO
SIGNIFICANT WEATHER AND/OR OBSTRUCTIONS TO VISIBILITY.

WIZ001-002-006>008-014>016-023>028-031900-
NORTHWEST WISCONSIN

CITY           SKY/WX    TMP DP  RH WIND       PRES   REMARKS
SUPERIOR ARPT  PTSUNNY   78  47  33 NW6       29.75S
6HR MIN TEMP:  60; 6HR MAX TEMP:  78;

ASHLAND        MOSUNNY   78  51  38 SW12G21   29.76S
6HR MIN TEMP:  62; 6HR MAX TEMP:  79;

HAYWARD        MOSUNNY   73  50  44 S9        29.80S
6HR MIN TEMP:  58; 6HR MAX TEMP:  74;

SIREN          CLOUDY    72  50  45 W7        29.80S
6HR MIN TEMP:  58; 6HR MAX TEMP:  73;

CUMBERLAND     MOSUNNY   72  50  46 SW6       29.81S
RICE LAKE      MOSUNNY   73  52  47 S7        29.82F
6HR MIN TEMP:  53; 6HR MAX TEMP:  74;

CHETEK         MOSUNNY   73  55  52 S6        29.80F
6HR MIN TEMP:  53; 6HR MAX TEMP:  74;

LADYSMITH      SUNNY     73  54  50 SW6       29.83S
6HR MIN TEMP:  51; 6HR MAX TEMP:  73;

EAU CLAIRE     MOSUNNY   74  52  46 S7        29.79F
6HR MIN TEMP:  57; 6HR MAX TEMP:  74;

MENOMONIE      MOSUNNY   73  53  48 S6        29.80S
6HR MIN TEMP:  58; 6HR MAX TEMP:  73;

NEW RICHMOND   MOSUNNY   75  52  44 SE5       29.80S
6HR MIN TEMP:  54; 6HR MAX TEMP:  75;

OSCEOLA        MOSUNNY   75  55  48 S5        29.83R
6HR MIN TEMP:  56; 6HR MAX TEMP:  75;

$$

WIZ003>005-009-010-017-018-031900-
NORTH CENTRAL WISCONSIN

CITY           SKY/WX    TMP DP  RH WIND       PRES   REMARKS
MANITOWISH WTR MOSUNNY   74  51  44 SW10G17   29.80R
6HR MIN TEMP:  57; 6HR MAX TEMP:  74;

ARBOR VITAE    SUNNY     77  53  44 SW10G17   29.80F
6HR MIN TEMP:  57; 6HR MAX TEMP:  77;

WOODRUFF       SUNNY     77  53  44 SW10G17   29.80F
6HR MIN TEMP:  57; 6HR MAX TEMP:  77;

RHINELANDER    SUNNY     75  52  44 SW12G23   29.82F
6HR MIN TEMP:  56; 6HR MAX TEMP:  76;

EAGLE RIVER    SUNNY     75  46  35 SW14      29.80F
6HR MIN TEMP:  56; 6HR MAX TEMP:  75;

LAND O LAKES   MOSUNNY   76  46  35 SW3       29.81S
6HR MIN TEMP:  57; 6HR MAX TEMP:  76;

PHILLIPS       CLOUDY    73  53  50 SW9G16    29.80S
6HR MIN TEMP:  55; 6HR MAX TEMP:  74;

TOMAHAWK       MOSUNNY   75  53  45 S5        29.82F
6HR MIN TEMP:  51; 6HR MAX TEMP:  75;

MEDFORD        MOSUNNY   72  52  49 SW9G17    29.83S
6HR MIN TEMP:  55; 6HR MAX TEMP:  73;

MERRILL        MOSUNNY   74  53  47 SW13G20   29.82F
6HR MIN TEMP:  56; 6HR MAX TEMP:  75;

$$

WIZ029-030-035-036-043>047-031900-
CENTRAL WISCONSIN

CITY           SKY/WX    TMP DP  RH WIND       PRES   REMARKS
WAUSAU         MOSUNNY   74  51  44 S9        29.81F
6HR MIN TEMP:  56; 6HR MAX TEMP:  75;

MOSINEE        SUNNY     73  52  46 S14       29.84F
MARSHFIELD     MOSUNNY   77  51  40 S12G21    29.82F
6HR MIN TEMP:  55; 6HR MAX TEMP:  78;

STEVENS POINT  MOSUNNY   75  50  41 SW16G22   29.82F
6HR MIN TEMP:  54; 6HR MAX TEMP:  75;

WAUPACA        PTSUNNY   78  50  37 S7        29.84F
6HR MIN TEMP:  56; 6HR MAX TEMP:  78;

WAUTOMA        PTSUNNY   78  51  38 S14G21    29.84F
6HR MIN TEMP:  49; 6HR MAX TEMP:  79;

WISC RAPIDS    MOSUNNY   77  49  37 S14       29.83F
6HR MIN TEMP:  57; 6HR MAX TEMP:  77;

CAMP DOUGLAS   PTSUNNY   75  54  46 S10G21    29.82F
$$

WIZ011>013-019>022-031-037>040-048>050-031900-
NORTHEAST WISCONSIN

CITY           SKY/WX    TMP DP  RH WIND       PRES   REMARKS
ANTIGO         SUNNY     73  52  47 SW12G17   29.84F
SHAWANO        SUNNY     79  49  35 SW10G18   29.83F
6HR MIN TEMP:  58; 6HR MAX TEMP:  79;

OCONTO         MOSUNNY   77  52  41 S13G18    29.82F
6HR MIN TEMP:  58; 6HR MAX TEMP:  78;

STURGEON BAY   PTSUNNY   72  48  43 S16       29.88F
6HR MIN TEMP:  57; 6HR MAX TEMP:  73;

GREEN BAY      MOSUNNY   78  51  38 SW18G25   29.85F
6HR MIN TEMP:  56; 6HR MAX TEMP:  78;

MANITOWOC      PTSUNNY   69  46  43 S18       29.88F
6HR MIN TEMP:  52; 6HR MAX TEMP:  70;

APPLETON       PTSUNNY   73  48  40 SW21      29.86F
CLINTONVILLE   MOSUNNY   79  48  34 SW17      29.84F
OSHKOSH        PTSUNNY   76  53  44 SW16G26   29.86F
6HR MIN TEMP:  57; 6HR MAX TEMP:  77;

$$

WIZ032>034-041-042-053>061-031900-
SOUTHWEST WISCONSIN

CITY           SKY/WX    TMP DP  RH WIND       PRES   REMARKS
LA CROSSE      MOSUNNY   76  53  44 S7        29.81F
6HR MIN TEMP:  62; 6HR MAX TEMP:  78;

SPARTA         MOSUNNY   76  50  39 SW8       29.83S
6HR MIN TEMP:  60; 6HR MAX TEMP:  76;

VIROQUA        MOSUNNY   74  52  46 S12G17    29.84F
6HR MIN TEMP:  58; 6HR MAX TEMP:  74;

BOSCOBEL       LGT RAIN  76  55  48 S14       29.86S
6HR MIN TEMP:  62; 6HR MAX TEMP:  76; 6HR PCP: TRACE;

PRAIRIE DU CHI PTSUNNY   75  51  42 S10G17    29.84F
6HR MIN TEMP:  60; 6HR MAX TEMP:  75;

PLATTEVILLE    CLOUDY    68  54  59 S15G22    29.90F
6HR MIN TEMP:  59; 6HR MAX TEMP:  69;

$$

WIZ056-057-062-063-064-067-068-031900-
SOUTH CENTRAL WISCONSIN

CITY           SKY/WX    TMP DP  RH WIND       PRES   REMARKS
REEDSBURG      CLOUDY    74  56  52 SW10      29.85S
6HR MIN TEMP:  60; 6HR MAX TEMP:  74;

BARABOO/DELLS  NOT AVBL
LONE ROCK      PTSUNNY   73  54  51 S14G22    29.86F
6HR MIN TEMP:  61; 6HR MAX TEMP:  74;

MINERAL POINT  PTSUNNY   70  52  52 S18G25    29.89S
MADISON        PTSUNNY   73  53  49 SW14G25   29.88F
6HR MIN TEMP:  61; 6HR MAX TEMP:  76;

MIDDLETON      PTSUNNY   76  51  41 S21       29.88F
6HR MIN TEMP:  61; 6HR MAX TEMP:  76;

WATERTOWN      CLOUDY    74  54  50 S15G23    29.89F
6HR MIN TEMP:  57; 6HR MAX TEMP:  74;

MONROE         CLOUDY    68  55  64 SW18G33   29.93R THUNDER
JANESVILLE     PTSUNNY   75  52  43 SW20G25   29.90F
$$

WIZ051-052-058>065-066-070>072-031900-
SOUTHEAST WISCONSIN

CITY           SKY/WX    TMP DP  RH WIND       PRES   REMARKS
MILWAUKEE      CLOUDY    76  49  38 SW15G28   29.91F
6HR MIN TEMP:  59; 6HR MAX TEMP:  76; 6HR PCP: TRACE;

WAUKESHA       CLOUDY    73  48  40 S13G20    29.92F
MILWAUKEE/TIMM PTSUNNY   73  46  38 SW13G21   29.91F
RACINE         CLOUDY    79  50  36 S15G24    29.93F
6HR MIN TEMP:  59; 6HR MAX TEMP:  79;

BURLINGTON     PTSUNNY   78  49  36 SW23G29   29.91F
6HR MIN TEMP:  55; 6HR MAX TEMP:  80;

KENOSHA        PTSUNNY   79  51  37 S16G25    29.92F
6HR MIN TEMP:  58; 6HR MAX TEMP:  79;

FOND DU LAC    PTSUNNY   76  51  41 S20G37    29.87F
6HR MIN TEMP:  59; 6HR MAX TEMP:  77;

SHEBOYGAN      PTSUNNY   79  50  36 S22       29.88F
6HR MIN TEMP:  55; 6HR MAX TEMP:  79;

WEST BEND      PTSUNNY   73  46  38 SW14G20   29.89F
JUNEAU         PTSUNNY   72  53  51 S18       29.90F
6HR MIN TEMP:  57; 6HR MAX TEMP:  72;

$$

LSZ147-162-031900-
LAKE SUPERIOR

STATION/POSITION TIME  TEMP    WIND        PRES    WAVE
                       AIR SEA DIR/SP/G            HT/PER
                 (UTC) (F)     (DEG/KT/KT) (MB)    (FT/S)
W MID LAKE BUOY  1750   46 36  210/ 10/ 12 1007.9R   1
DEVILS ISLAND    1800   64     230/ 14/ 16 1007.3R
PORT WING        1700   69     250/  8/ 13 1007.8R
SAXON HARBOR     1740           20/  3/  5 1007.8R
$$

LMZ867-665-643>646-031900-
LAKE MICHIGAN

STATION/POSITION TIME  TEMP    WIND        PRES    WAVE
                       AIR SEA DIR/SP/G            HT/PER
                 (UTC) (F)     (DEG/KT/KT) (MB)    (FT/S)
CHAMBERS ISLAND  1700   71     190/ 10/ 19 1011.2S


USA.gov is the U.S. government's official web portal to all federal, state and local government web resources and services.